Maniitsoq,

8:36 AM -03 on December 12, 2017 (GMT -0300)
Maniitsoq

Weather History for BGMQ - September, 2013

Change the Weather History Date:

Sunday, September 8, 2013

  Actual Average Record
Temperature  
Mean Temperature 40 °F -  
Max Temperature 41 °F - - ()
Min Temperature 39 °F - - ()
Degree Days  
Heating Degree Days 25    
Moisture  
Dew Point 39 °F    
Average Humidity 97    
Maximum Humidity 100    
Minimum Humidity 87    
Precipitation  
Precipitation 0.00 in - - ()
Sea Level Pressure  
Sea Level Pressure 29.49 in    
Wind  
Wind Speed 7 mph ()    
Max Wind Speed 15 mph    
Max Gust Speed -    
Visibility 5.6 miles    
Events Fog , Rain    
T = Trace of Precipitation, MM = Missing Value Source: Averaged Metar Reports

Daily Weather History Graph

Daily Weather History Graph

Search for Another Location

Airport or City:

Trip Planner

Search our weather history database for the weather conditions in past years. The results will help you decide how hot, cold, wet, or windy it might be!

Date:

Astronomy

Sep. 08, 2013 Rise Set
Actual Time 6:31 AM -02 8:24 PM -02
Civil Twilight 5:38 AM -02 9:17 PM -02
Nautical Twilight 4:26 AM -02 10:28 PM -02
Astronomical Twilight 2:33 AM -02 12:14 AM -02
Moon 11:18 AM -02 (9/8) 8:13 PM -02 (9/8)
Length of Visible Light 15h 39m
Length of Day
13h 52m
Waxing Crescent, 10% of the Moon is Illuminated
Sep 8
Waxing Crescent
Sep 12
First Quarter
Sep 19
Full
Sep 27
Last Quarter
Oct 4
New

Hourly Weather History & Observations

Time (-02) Temp. Windchill Dew Point Humidity Pressure Visibility Wind Dir Wind Speed Gust Speed Precip Events Conditions
12:20 AM 41.0 °F 34.3 °F 39.2 °F 93% 29.44 in 6.2 mi SE 11.5 mph - N/A   Overcast
12:50 AM 41.0 °F 33.5 °F 39.2 °F 93% 29.44 in 6.2 mi SE 13.8 mph - N/A   Overcast
1:20 AM 41.0 °F 33.1 °F 37.4 °F 87% 29.44 in 6.2 mi SE 15.0 mph - N/A   Overcast
1:50 AM 41.0 °F 33.5 °F 39.2 °F 93% 29.44 in 6.2 mi SE 13.8 mph - N/A   Light Drizzle
2:20 AM 39.2 °F 32.0 °F 39.2 °F 100% 29.44 in 5.6 mi ESE 11.5 mph - N/A   Light Drizzle
2:50 AM 39.2 °F 32.0 °F 39.2 °F 100% 29.44 in 5.0 mi ESE 11.5 mph - N/A   Light Drizzle
3:20 AM 39.2 °F 32.0 °F 39.2 °F 100% 29.44 in 4.3 mi ESE 11.5 mph - N/A Rain Light Rain
3:50 AM 39.2 °F 33.0 °F 39.2 °F 100% 29.44 in 6.2 mi East 9.2 mph - N/A   Light Drizzle
4:20 AM 39.2 °F 33.6 °F 39.2 °F 100% 29.44 in 6.2 mi ESE 8.1 mph - N/A Rain Light Rain
4:50 AM 39.2 °F 33.6 °F 39.2 °F 100% 29.44 in 6.2 mi SE 8.1 mph - N/A Rain Light Rain
5:20 AM 39.2 °F 35.0 °F 39.2 °F 100% 29.44 in - East 5.8 mph - N/A Rain Light Rain
5:50 AM 39.2 °F 35.0 °F 39.2 °F 100% 29.44 in 3.1 mi East 5.8 mph - N/A Rain Light Rain
6:20 AM 39.2 °F 35.0 °F 39.2 °F 100% 29.44 in 3.7 mi East 5.8 mph - N/A Rain Light Rain
6:50 AM 39.2 °F 35.0 °F 39.2 °F 100% 29.44 in 6.2 mi East 5.8 mph - N/A Rain Light Rain Showers
7:20 AM 39.2 °F 37.0 °F 39.2 °F 100% 29.44 in 6.2 mi East 3.5 mph - N/A   Overcast
7:50 AM 39.2 °F 37.0 °F 39.2 °F 100% 29.44 in 6.2 mi East 3.5 mph - N/A   Overcast
8:20 AM 41.0 °F 38.0 °F 39.2 °F 93% 29.47 in 6.2 mi East 4.6 mph - N/A   Overcast
8:50 AM 41.0 °F 35.8 °F 39.2 °F 93% 29.47 in 1.8 mi ESE 8.1 mph - N/A Rain Light Rain
9:20 AM 41.0 °F 35.8 °F 39.2 °F 93% 29.47 in 6.2 mi SE 8.1 mph - N/A   Overcast
9:50 AM 41.0 °F 34.7 °F 39.2 °F 93% 29.47 in - SSE 10.4 mph - N/A Rain Light Rain Showers
10:20 AM 41.0 °F 35.2 °F 39.2 °F 93% 29.47 in 6.2 mi SSE 9.2 mph - N/A   Overcast
10:50 AM 41.0 °F 34.7 °F 39.2 °F 93% 29.47 in 0.6 mi South 10.4 mph - N/A Fog Fog
11:20 AM 39.2 °F 34.2 °F 39.2 °F 100% 29.47 in 1.4 mi SSE 6.9 mph - N/A   Overcast
11:50 AM 41.0 °F 37.1 °F 39.2 °F 93% 29.47 in 6.2 mi SE 5.8 mph - N/A   Mostly Cloudy
12:20 PM 41.0 °F 39.0 °F 39.2 °F 93% 29.47 in 6.2 mi SSE 3.5 mph - N/A   Mostly Cloudy
12:50 PM 41.0 °F 38.0 °F 39.2 °F 93% 29.47 in 6.2 mi South 4.6 mph - N/A   Mostly Cloudy
1:20 PM 41.0 °F - 41.0 °F 100% 29.47 in 6.2 mi SSE 2.3 mph - N/A   Mostly Cloudy
1:50 PM 41.0 °F - 39.2 °F 93% 29.47 in 6.2 mi SSW 2.3 mph - N/A   Overcast
2:20 PM 41.0 °F - 39.2 °F 93% 29.47 in 6.2 mi Variable 1.2 mph - N/A   Mostly Cloudy
2:50 PM 41.0 °F - 39.2 °F 93% 29.47 in 6.2 mi SSE 2.3 mph - N/A   Mostly Cloudy
3:20 PM 41.0 °F 39.0 °F 39.2 °F 93% 29.50 in 6.2 mi West 3.5 mph - N/A   Overcast
3:50 PM 39.2 °F 35.9 °F 39.2 °F 100% 29.50 in 6.2 mi West 4.6 mph - N/A   Light Drizzle
4:20 PM 39.2 °F - 39.2 °F 100% 29.50 in 6.2 mi West 2.3 mph - N/A Rain Light Rain
4:50 PM 39.2 °F 37.0 °F 39.2 °F 100% 29.50 in 6.2 mi WSW 3.5 mph - N/A   Light Drizzle
5:20 PM 39.2 °F 33.6 °F 39.2 °F 100% 29.50 in 6.2 mi WSW 8.1 mph - N/A Rain Light Rain
5:50 PM 39.2 °F 34.2 °F 39.2 °F 100% 29.50 in 5.6 mi West 6.9 mph - N/A Rain Light Rain
6:20 PM 39.2 °F 34.2 °F 39.2 °F 100% 29.53 in 6.2 mi West 6.9 mph - N/A Rain Light Rain
6:50 PM 39.2 °F 35.0 °F 39.2 °F 100% 29.53 in 6.2 mi West 5.8 mph - N/A Rain Light Rain
7:20 PM 39.2 °F 35.0 °F 39.2 °F 100% 29.53 in 6.2 mi WNW 5.8 mph - N/A Rain Light Rain
7:50 PM 39.2 °F 35.9 °F 39.2 °F 100% 29.53 in 6.2 mi NW 4.6 mph - N/A Rain Light Rain
8:20 PM 39.2 °F 35.9 °F 39.2 °F 100% 29.56 in 6.2 mi West 4.6 mph - N/A   Light Drizzle
8:50 PM 39.2 °F 35.0 °F 39.2 °F 100% 29.56 in 5.6 mi WSW 5.8 mph - N/A Rain Light Rain
9:20 PM 39.2 °F - 37.4 °F 93% 29.56 in 6.2 mi WSW 1.2 mph - N/A Rain Light Rain
9:50 PM 39.2 °F 37.0 °F 37.4 °F 93% 29.59 in 6.2 mi South 3.5 mph - N/A Rain Light Rain
10:20 PM 39.2 °F 34.2 °F 39.2 °F 100% 29.59 in 6.2 mi South 6.9 mph - N/A Rain Light Rain
10:50 PM 39.2 °F 35.0 °F 39.2 °F 100% 29.59 in 3.1 mi SSW 5.8 mph - N/A Rain Light Rain
11:20 PM 39.2 °F 33.0 °F 39.2 °F 100% 29.62 in 6.2 mi SSW 9.2 mph - N/A Rain Light Rain
11:50 PM 39.2 °F 33.6 °F 39.2 °F 100% 29.62 in 6.2 mi South 8.1 mph - N/A Rain Light Rain